| time (UTC) | temp C | wind direction | speed KPH | gust KPH | rain 1hr cm | rain 24hr cm | rain mn cm | humidity % | barometer mb |
| 20260507185601 | 18 | 272 | 1.6 | 4.8 | 0.00 | 0.00 | 0.00 | 33 | 1010.1 |
| 20260507185057 | 19 | 293 | 6.4 | 14.5 | 0.00 | 0.00 | 0.00 | 34 | 1010.0 |
| 20260507184555 | 21 | 80 | 4.8 | 6.4 | 0.00 | 0.00 | 0.00 | 35 | 1010.1 |
| 20260507184052 | 20 | 203 | 0.0 | 3.2 | 0.00 | 0.00 | 0.00 | 47 | 1010.1 |
| 20260507183548 | 19 | 209 | 1.6 | 3.2 | 0.00 | 0.00 | 0.00 | 40 | 1010.0 |
| 20260507183046 | 19 | 213 | 3.2 | 4.8 | 0.00 | 0.00 | 0.00 | 34 | 1010.0 |
| 20260507182542 | 18 | 310 | 4.8 | 11.3 | 0.00 | 0.00 | 0.00 | 34 | 1010.2 |
| 20260507182038 | 19 | 204 | 6.4 | 9.7 | 0.00 | 0.00 | 0.00 | 38 | 1010.1 |
| 20260507181535 | 19 | 304 | 3.2 | 4.8 | 0.00 | 0.00 | 0.00 | 42 | 1010.4 |
| 20260507181031 | 18 | 281 | 8.0 | 9.7 | 0.00 | 0.00 | 0.00 | 40 | 1010.4 |
| 20260507180528 | 18 | 325 | 9.7 | 14.5 | 0.00 | 0.00 | 0.00 | 41 | 1010.8 |
| 20260507180025 | 19 | 0 | 9.7 | 11.3 | 0.00 | 0.00 | 0.00 | 35 | 1010.6 |
| 20260507175521 | 18 | 20 | 1.6 | 3.2 | 0.00 | 0.00 | 0.00 | 41 | 1010.6 |
| 20260507175019 | 18 | 340 | 3.2 | 4.8 | 0.00 | 0.00 | 0.00 | 38 | 1010.8 |
| 20260507174515 | 18 | 272 | 3.2 | 4.8 | 0.00 | 0.00 | 0.00 | 38 | 1010.9 |
| 20260507174013 | 18 | 344 | 8.0 | 14.5 | 0.00 | 0.00 | 0.00 | 38 | 1010.9 |
| 20260507173510 | 18 | 205 | 1.6 | 4.8 | 0.00 | 0.00 | 0.00 | 40 | 1011.0 |
| 20260507173007 | 18 | 33 | 1.6 | 4.8 | 0.00 | 0.00 | 0.00 | 39 | 1011.2 |
| 20260507172503 | 18 | 59 | 1.6 | 4.8 | 0.00 | 0.00 | 0.00 | 40 | 1011.4 |
| 20260507172000 | 18 | 83 | 0.0 | 3.2 | 0.00 | 0.00 | 0.00 | 39 | 1011.3 |
| 20260507171455 | 18 | 65 | 1.6 | 6.4 | 0.00 | 0.00 | 0.00 | 40 | 1011.4 |
| 20260507170953 | 17 | 64 | 0.0 | 1.6 | 0.00 | 0.00 | 0.00 | 42 | 1011.5 |
| 20260507170449 | 18 | 39 | 3.2 | 9.7 | 0.00 | 0.00 | 0.00 | 47 | 1011.7 |
| 20260507165946 | 18 | 45 | 1.6 | 3.2 | 0.00 | 0.00 | 0.00 | 42 | 1011.7 |
| 20260507165442 | 17 | 118 | 1.6 | 3.2 | 0.00 | 0.00 | 0.00 | 40 | 1011.7 |
| 20260507164938 | 16 | 343 | 4.8 | 9.7 | 0.00 | 0.00 | 0.00 | 51 | 1012.0 |
| 20260507164435 | 17 | 310 | 4.8 | 12.9 | 0.00 | 0.00 | 0.00 | 44 | 1012.1 |
| 20260507163932 | 16 | 347 | 3.2 | 6.4 | 0.00 | 0.00 | 0.00 | 45 | 1012.1 |
| 20260507163429 | 17 | 329 | 3.2 | 6.4 | 0.00 | 0.00 | 0.00 | 47 | 1012.0 |
| 20260507162926 | 16 | 302 | 1.6 | 9.7 | 0.00 | 0.00 | 0.00 | 45 | 1012.2 |
| 20260507162421 | 16 | 42 | 6.4 | 6.4 | 0.00 | 0.00 | 0.00 | 50 | 1012.3 |
| 20260507161919 | 17 | 56 | 0.0 | 3.2 | 0.00 | 0.00 | 0.00 | 43 | 1012.2 |
| 20260507161415 | 16 | 85 | 0.0 | 11.3 | 0.00 | 0.00 | 0.00 | 46 | 1012.3 |
| 20260507160912 | 16 | 89 | 1.6 | 4.8 | 0.00 | 0.00 | 0.00 | 43 | 1012.3 |
| 20260507160408 | 16 | 130 | 1.6 | 3.2 | 0.00 | 0.00 | 0.00 | 43 | 1012.8 |
| 20260507155904 | 16 | 333 | 1.6 | 3.2 | 0.00 | 0.00 | 0.00 | 52 | 1012.7 |
| 20260507155400 | 15 | 205 | 3.2 | 9.7 | 0.00 | 0.00 | 0.00 | 42 | 1012.9 |
| 20260507154857 | 15 | 67 | 6.4 | 11.3 | 0.00 | 0.00 | 0.00 | 45 | 1012.8 |
| 20260507154354 | 16 | 289 | 6.4 | 6.4 | 0.00 | 0.00 | 0.00 | 46 | 1013.2 |
| 20260507153851 | 15 | 263 | 1.6 | 4.8 | 0.00 | 0.00 | 0.00 | 48 | 1013.2 |
| 20260507153347 | 15 | 270 | 1.6 | 11.3 | 0.00 | 0.00 | 0.00 | 45 | 1013.2 |
| 20260507152844 | 15 | 283 | 6.4 | 9.7 | 0.00 | 0.00 | 0.00 | 48 | 1013.0 |
| 20260507152340 | 15 | 73 | 1.6 | 4.8 | 0.00 | 0.00 | 0.00 | 43 | 1013.2 |
| 20260507151836 | 15 | 166 | 0.0 | 1.6 | 0.00 | 0.00 | 0.00 | 46 | 1013.2 |
| 20260507151333 | 14 | 312 | 3.2 | 6.4 | 0.00 | 0.00 | 0.00 | 49 | 1013.4 |
| 20260507150830 | 14 | 346 | 4.8 | 9.7 | 0.00 | 0.00 | 0.00 | 46 | 1013.7 |
| 20260507150326 | 13 | 45 | 1.6 | 3.2 | 0.00 | 0.00 | 0.00 | 51 | 1013.6 |
| 20260507145822 | 13 | 343 | 3.2 | 11.3 | 0.00 | 0.00 | 0.00 | 48 | 1013.8 |
| 20260507145319 | 13 | 315 | 4.8 | 12.9 | 0.00 | 0.00 | 0.00 | 47 | 1014.0 |
| 20260507144816 | 13 | 309 | 3.2 | 11.3 | 0.00 | 0.00 | 0.00 | 49 | 1014.0 |
| 20260507144314 | 14 | 317 | 4.8 | 9.7 | 0.00 | 0.00 | 0.00 | 45 | 1014.1 |
| 20260507143810 | 15 | 31 | 1.6 | 3.2 | 0.00 | 0.00 | 0.00 | 45 | 1014.2 |
| 20260507143307 | 14 | 338 | 3.2 | 4.8 | 0.00 | 0.00 | 0.00 | 51 | 1014.3 |
| 20260507142803 | 14 | 294 | 3.2 | 6.4 | 0.00 | 0.00 | 0.00 | 55 | 1014.2 |
| 20260507142300 | 13 | 26 | 3.2 | 6.4 | 0.00 | 0.00 | 0.00 | 49 | 1014.1 |
| 20260507141756 | 13 | 3 | 4.8 | 6.4 | 0.00 | 0.00 | 0.00 | 52 | 1014.3 |
| 20260507141254 | 14 | 18 | 4.8 | 11.3 | 0.00 | 0.00 | 0.00 | 52 | 1014.2 |
| 20260507140749 | 15 | 25 | 3.2 | 4.8 | 0.00 | 0.00 | 0.00 | 55 | 1014.2 |
| 20260507140247 | 14 | 50 | 1.6 | 4.8 | 0.00 | 0.00 | 0.00 | 50 | 1014.3 |
| 20260507135744 | 13 | 341 | 4.8 | 6.4 | 0.00 | 0.00 | 0.00 | 51 | 1014.3 |
| 20260507135241 | 13 | 295 | 6.4 | 9.7 | 0.00 | 0.00 | 0.00 | 49 | 1014.7 |
| 20260507134737 | 13 | 42 | 0.0 | 1.6 | 0.00 | 0.00 | 0.00 | 59 | 1014.6 |
| 20260507134234 | 13 | 46 | 1.6 | 3.2 | 0.00 | 0.00 | 0.00 | 57 | 1014.7 |
| 20260507133730 | 13 | 41 | 0.0 | 1.6 | 0.00 | 0.00 | 0.00 | 58 | 1014.6 |
| 20260507133227 | 12 | 33 | 0.0 | 1.6 | 0.00 | 0.00 | 0.00 | 60 | 1014.7 |
| 20260507132724 | 12 | 54 | 0.0 | 1.6 | 0.00 | 0.00 | 0.00 | 59 | 1014.8 |
| 20260507132221 | 12 | 312 | 1.6 | 3.2 | 0.00 | 0.00 | 0.00 | 60 | 1014.8 |
| 20260507131717 | 12 | 7 | 1.6 | 3.2 | 0.00 | 0.00 | 0.00 | 63 | 1014.8 |
| 20260507131215 | 12 | 76 | 0.0 | 1.6 | 0.00 | 0.00 | 0.00 | 58 | 1014.8 |
| 20260507130712 | 11 | 18 | 0.0 | 0.0 | 0.00 | 0.00 | 0.00 | 65 | 1015.0 |
| 20260507130210 | 11 | 325 | 1.6 | 4.8 | 0.00 | 0.00 | 0.00 | 61 | 1014.9 |
| 20260507125708 | 11 | 40 | 0.0 | 0.0 | 0.00 | 0.00 | 0.00 | 63 | 1015.0 |
| 20260507125205 | 11 | 55 | 0.0 | 0.0 | 0.00 | 0.00 | 0.00 | 63 | 1014.9 |
| 20260507124701 | 11 | 46 | 0.0 | 1.6 | 0.00 | 0.00 | 0.00 | 63 | 1015.1 |
| 20260507124159 | 11 | 358 | 0.0 | 0.0 | 0.00 | 0.00 | 0.00 | 62 | 1015.1 |
| 20260507123657 | 11 | 85 | 0.0 | 1.6 | 0.00 | 0.00 | 0.00 | 63 | 1015.0 |
| 20260507123154 | 11 | 56 | 0.0 | 0.0 | 0.00 | 0.00 | 0.00 | 62 | 1015.0 |
| 20260507122649 | 11 | 56 | 0.0 | 0.0 | 0.00 | 0.00 | 0.00 | 60 | 1014.9 |
| 20260507122145 | 11 | 53 | 0.0 | 0.0 | 0.00 | 0.00 | 0.00 | 63 | 1014.8 |
| 20260507121641 | 11 | 54 | 0.0 | 0.0 | 0.00 | 0.00 | 0.00 | 63 | 1014.9 |
| 20260507121137 | 11 | 52 | 0.0 | 1.6 | 0.00 | 0.00 | 0.00 | 62 | 1015.0 |
| 20260507120634 | 11 | 52 | 0.0 | 1.6 | 0.00 | 0.00 | 0.00 | 63 | 1014.7 |
| 20260507120130 | 11 | 53 | 0.0 | 0.0 | 0.00 | 0.00 | 0.00 | 62 | 1014.6 |
| 20260507115627 | 11 | 51 | 0.0 | 1.6 | 0.00 | 0.00 | 0.00 | 62 | 1014.6 |
| 20260507115122 | 11 | 28 | 0.0 | 3.2 | 0.00 | 0.00 | 0.00 | 64 | 1014.8 |
| 20260507114618 | 11 | 42 | 0.0 | 1.6 | 0.00 | 0.00 | 0.00 | 63 | 1014.7 |
| 20260507114116 | 11 | 13 | 0.0 | 3.2 | 0.00 | 0.00 | 0.00 | 64 | 1014.8 |
| 20260507113613 | 11 | 333 | 0.0 | 1.6 | 0.00 | 0.00 | 0.00 | 62 | 1014.8 |
| 20260507113110 | 11 | 88 | 0.0 | 1.6 | 0.00 | 0.00 | 0.00 | 66 | 1014.6 |
| 20260507112608 | 11 | 26 | 0.0 | 1.6 | 0.00 | 0.00 | 0.00 | 68 | 1014.8 |
| 20260507112104 | 11 | 11 | 0.0 | 0.0 | 0.00 | 0.00 | 0.00 | 66 | 1014.7 |
| 20260507111602 | 10 | 315 | 1.6 | 1.6 | 0.00 | 0.00 | 0.00 | 66 | 1014.7 |
| 20260507111058 | 10 | 348 | 0.0 | 1.6 | 0.00 | 0.00 | 0.00 | 71 | 1014.7 |
| 20260507110554 | 10 | 44 | 0.0 | 0.0 | 0.00 | 0.00 | 0.00 | 66 | 1014.7 |
| 20260507110051 | 10 | 43 | 0.0 | 0.0 | 0.00 | 0.00 | 0.00 | 70 | 1014.6 |
| 20260507105548 | 10 | 44 | 0.0 | 0.0 | 0.00 | 0.00 | 0.00 | 68 | 1014.5 |
| 20260507105044 | 10 | 45 | 0.0 | 0.0 | 0.00 | 0.00 | 0.00 | 66 | 1014.3 |
| 20260507104542 | 10 | 48 | 0.0 | 0.0 | 0.00 | 0.00 | 0.00 | 68 | 1014.3 |
| 20260507104038 | 10 | 89 | 0.0 | 0.0 | 0.00 | 0.00 | 0.00 | 69 | 1014.2 |
| 20260507103534 | 10 | 6 | 0.0 | 0.0 | 0.00 | 0.00 | 0.00 | 68 | 1014.0 |
| 20260507103031 | 10 | 6 | 0.0 | 0.0 | 0.00 | 0.00 | 0.00 | 67 | 1013.9 |
| 20260507102527 | 10 | 23 | 0.0 | 0.0 | 0.00 | 0.00 | 0.00 | 67 | 1014.1 |
| 20260507102023 | 10 | 44 | 0.0 | 0.0 | 0.00 | 0.00 | 0.00 | 67 | 1014.0 |
| 20260507101519 | 11 | 41 | 0.0 | 1.6 | 0.00 | 0.00 | 0.00 | 64 | 1014.0 |
| 20260507101016 | 11 | 299 | 0.0 | 1.6 | 0.00 | 0.00 | 0.00 | 65 | 1014.0 |
| 20260507100513 | 11 | 318 | 1.6 | 1.6 | 0.00 | 0.00 | 0.00 | 65 | 1013.8 |
| 20260507100011 | 11 | 351 | 1.6 | 3.2 | 0.00 | 0.00 | 0.00 | 67 | 1013.8 |
| 20260507095509 | 11 | 35 | 1.6 | 3.2 | 0.00 | 0.00 | 0.00 | 66 | 1013.7 |
| 20260507095005 | 11 | 323 | 0.0 | 1.6 | 0.00 | 0.00 | 0.00 | 75 | 1013.7 |
| 20260507094501 | 11 | 29 | 0.0 | 0.0 | 0.00 | 0.00 | 0.00 | 77 | 1013.6 |
| 20260507093959 | 11 | 29 | 0.0 | 0.0 | 0.00 | 0.00 | 0.00 | 76 | 1013.6 |
| 20260507093456 | 11 | 18 | 0.0 | 0.0 | 0.00 | 0.00 | 0.00 | 74 | 1013.5 |
| 20260507092954 | 11 | 4 | 0.0 | 0.0 | 0.00 | 0.00 | 0.00 | 78 | 1013.6 |
| 20260507092450 | 11 | 344 | 0.0 | 0.0 | 0.00 | 0.00 | 0.00 | 77 | 1013.6 |
| 20260507091947 | 11 | 344 | 0.0 | 0.0 | 0.00 | 0.00 | 0.00 | 76 | 1013.6 |
| 20260507091444 | 11 | 336 | 0.0 | 1.6 | 0.00 | 0.00 | 0.00 | 74 | 1013.7 |
| 20260507090940 | 11 | 324 | 1.6 | 1.6 | 0.00 | 0.00 | 0.00 | 74 | 1013.8 |
| 20260507090436 | 11 | 60 | 0.0 | 1.6 | 0.00 | 0.00 | 0.00 | 74 | 1013.7 |
| 20260507085932 | 11 | 30 | 0.0 | 0.0 | 0.00 | 0.00 | 0.00 | 74 | 1013.7 |
| 20260507085430 | 11 | 30 | 0.0 | 0.0 | 0.00 | 0.00 | 0.00 | 74 | 1013.5 |
| 20260507084927 | 11 | 64 | 0.0 | 0.0 | 0.00 | 0.00 | 0.00 | 74 | 1013.4 |
| 20260507084424 | 11 | 331 | 1.6 | 3.2 | 0.00 | 0.00 | 0.00 | 72 | 1013.6 |
| 20260507083921 | 11 | 25 | 0.0 | 0.0 | 0.00 | 0.00 | 0.00 | 77 | 1013.5 |
| 20260507083417 | 11 | 22 | 1.6 | 3.2 | 0.00 | 0.00 | 0.00 | 76 | 1013.6 |
| 20260507082913 | 11 | 30 | 0.0 | 1.6 | 0.00 | 0.00 | 0.00 | 77 | 1013.7 |
| 20260507082409 | 11 | 31 | 0.0 | 0.0 | 0.00 | 0.00 | 0.00 | 78 | 1013.6 |
| 20260507081906 | 11 | 351 | 0.0 | 1.6 | 0.00 | 0.00 | 0.00 | 77 | 1013.5 |
| 20260507081402 | 11 | 52 | 1.6 | 3.2 | 0.00 | 0.00 | 0.00 | 77 | 1013.4 |
| 20260507080859 | 11 | 45 | 0.0 | 3.2 | 0.00 | 0.00 | 0.00 | 78 | 1013.3 |
| 20260507080355 | 11 | 46 | 1.6 | 1.6 | 0.00 | 0.00 | 0.00 | 81 | 1013.0 |
| 20260507075851 | 11 | 48 | 0.0 | 0.0 | 0.00 | 0.00 | 0.00 | 83 | 1013.3 |
| 20260507075347 | 11 | 16 | 0.0 | 0.0 | 0.00 | 0.00 | 0.00 | 85 | 1012.9 |
| 20260507074844 | 11 | 17 | 0.0 | 0.0 | 0.00 | 0.00 | 0.00 | 84 | 1013.0 |
| 20260507074341 | 11 | 33 | 0.0 | 0.0 | 0.00 | 0.00 | 0.00 | 83 | 1012.8 |
| 20260507073838 | 11 | 32 | 0.0 | 0.0 | 0.00 | 0.00 | 0.00 | 82 | 1012.8 |
| 20260507073335 | 12 | 340 | 0.0 | 0.0 | 0.00 | 0.00 | 0.00 | 81 | 1012.5 |
| 20260507072832 | 12 | 20 | 0.0 | 1.6 | 0.00 | 0.00 | 0.00 | 81 | 1012.8 |
| 20260507072329 | 12 | 28 | 1.6 | 1.6 | 0.00 | 0.00 | 0.00 | 82 | 1012.9 |
| 20260507071827 | 12 | 49 | 3.2 | 3.2 | 0.00 | 0.00 | 0.00 | 79 | 1012.8 |
| 20260507071324 | 12 | 17 | 1.6 | 1.6 | 0.00 | 0.00 | 0.00 | 81 | 1012.8 |
| 20260507070820 | 12 | 359 | 1.6 | 3.2 | 0.00 | 0.00 | 0.00 | 80 | 1013.0 |
| 20260507070318 | 12 | 69 | 0.0 | 0.0 | 0.00 | 0.00 | 0.00 | 81 | 1012.8 |
| 20260507065814 | 12 | 13 | 0.0 | 0.0 | 0.00 | 0.00 | 0.00 | 82 | 1012.8 |
| 20260507065310 | 12 | 24 | 0.0 | 1.6 | 0.00 | 0.00 | 0.00 | 81 | 1013.0 |
| 20260507064808 | 12 | 332 | 0.0 | 0.0 | 0.00 | 0.00 | 0.00 | 81 | 1013.3 |
| 20260507064307 | 12 | 302 | 1.6 | 1.6 | 0.00 | 0.00 | 0.00 | 82 | 1013.3 |
| 20260507063804 | 12 | 294 | 0.0 | 1.6 | 0.00 | 0.00 | 0.00 | 80 | 1013.4 |
| 20260507063301 | 12 | 328 | 0.0 | 0.0 | 0.00 | 0.00 | 0.00 | 82 | 1013.2 |
| 20260507062757 | 12 | 98 | 0.0 | 0.0 | 0.00 | 0.00 | 0.00 | 82 | 1013.4 |
| 20260507062254 | 12 | 91 | 0.0 | 0.0 | 0.00 | 0.00 | 0.00 | 83 | 1013.3 |
| 20260507061752 | 12 | 285 | 0.0 | 0.0 | 0.00 | 0.00 | 0.00 | 84 | 1013.5 |
| 20260507061250 | 12 | 286 | 0.0 | 1.6 | 0.00 | 0.00 | 0.00 | 84 | 1013.4 |
| 20260507060748 | 12 | 315 | 0.0 | 1.6 | 0.00 | 0.00 | 0.00 | 85 | 1013.3 |
| 20260507060244 | 12 | 30 | 0.0 | 0.0 | 0.00 | 0.00 | 0.00 | 82 | 1013.5 |
| 20260507055741 | 12 | 15 | 0.0 | 0.0 | 0.00 | 0.00 | 0.00 | 83 | 1013.6 |
| 20260507055236 | 12 | 15 | 0.0 | 0.0 | 0.00 | 0.00 | 0.00 | 83 | 1013.6 |
| 20260507054733 | 12 | 19 | 0.0 | 0.0 | 0.00 | 0.00 | 0.00 | 84 | 1013.5 |
| 20260507054230 | 12 | 15 | 0.0 | 0.0 | 0.00 | 0.00 | 0.00 | 83 | 1013.3 |
| 20260507053727 | 12 | 4 | 0.0 | 0.0 | 0.00 | 0.00 | 0.00 | 83 | 1013.3 |
| 20260507053225 | 12 | 3 | 0.0 | 0.0 | 0.00 | 0.00 | 0.00 | 82 | 1013.3 |
| 20260507052724 | 12 | 359 | 0.0 | 0.0 | 0.00 | 0.00 | 0.00 | 83 | 1013.2 |
| 20260507052219 | 12 | 304 | 1.6 | 1.6 | 0.00 | 0.00 | 0.00 | 82 | 1013.0 |
| 20260507051718 | 12 | 52 | 0.0 | 1.6 | 0.00 | 0.00 | 0.00 | 82 | 1013.3 |
| 20260507051214 | 12 | 53 | 0.0 | 1.6 | 0.00 | 0.00 | 0.00 | 81 | 1012.9 |
| 20260507050710 | 12 | 52 | 0.0 | 1.6 | 0.00 | 0.00 | 0.00 | 82 | 1013.0 |
| 20260507050208 | 12 | 53 | 0.0 | 0.0 | 0.00 | 0.00 | 0.00 | 81 | 1013.2 |
| 20260507045704 | 12 | 98 | 0.0 | 0.0 | 0.00 | 0.00 | 0.00 | 81 | 1013.2 |
| 20260507045200 | 12 | 70 | 0.0 | 0.0 | 0.00 | 0.00 | 0.00 | 81 | 1012.9 |
| 20260507044658 | 12 | 47 | 0.0 | 0.0 | 0.00 | 0.00 | 0.00 | 81 | 1013.0 |
| 20260507044154 | 12 | 36 | 1.6 | 1.6 | 0.00 | 0.00 | 0.00 | 81 | 1012.9 |
| 20260507043651 | 13 | 43 | 0.0 | 1.6 | 0.00 | 0.00 | 0.00 | 80 | 1013.0 |
| 20260507043148 | 13 | 25 | 1.6 | 4.8 | 0.00 | 0.00 | 0.00 | 78 | 1012.9 |
| 20260507042644 | 13 | 34 | 1.6 | 1.6 | 0.00 | 0.00 | 0.00 | 78 | 1013.3 |
| 20260507042139 | 13 | 54 | 0.0 | 6.4 | 0.00 | 0.00 | 0.00 | 78 | 1012.9 |
| 20260507041637 | 13 | 63 | 0.0 | 11.3 | 0.00 | 0.00 | 0.00 | 78 | 1013.0 |
| 20260507041132 | 13 | 339 | 1.6 | 3.2 | 0.00 | 0.00 | 0.00 | 81 | 1012.8 |
| 20260507040630 | 13 | 56 | 0.0 | 1.6 | 0.00 | 0.00 | 0.00 | 80 | 1013.0 |
| 20260507040126 | 13 | 67 | 1.6 | 3.2 | 0.00 | 0.61 | 0.61 | 81 | 1013.0 |
| 20260507035622 | 13 | 60 | 0.0 | 1.6 | 0.00 | 0.61 | 0.61 | 79 | 1013.0 |
| 20260507035118 | 13 | 338 | 1.6 | 4.8 | 0.00 | 0.61 | 0.61 | 80 | 1013.3 |
| 20260507034615 | 13 | 330 | 6.4 | 9.7 | 0.00 | 0.61 | 0.61 | 80 | 1013.4 |
| 20260507034113 | 13 | 28 | 3.2 | 4.8 | 0.00 | 0.61 | 0.61 | 81 | 1013.2 |
| 20260507033611 | 13 | 300 | 1.6 | 3.2 | 0.00 | 0.61 | 0.61 | 83 | 1012.7 |
| 20260507033108 | 13 | 23 | 1.6 | 1.6 | 0.00 | 0.61 | 0.61 | 82 | 1012.8 |
| 20260507032605 | 13 | 48 | 0.0 | 4.8 | 0.00 | 0.61 | 0.61 | 82 | 1012.9 |
| 20260507032101 | 13 | 355 | 0.0 | 1.6 | 0.00 | 0.61 | 0.61 | 85 | 1013.0 |
| 20260507031558 | 13 | 26 | 0.0 | 1.6 | 0.00 | 0.61 | 0.61 | 85 | 1012.9 |
| 20260507031055 | 13 | 13 | 0.0 | 3.2 | 0.00 | 0.61 | 0.61 | 84 | 1013.0 |
| 20260507030551 | 13 | 345 | 0.0 | 3.2 | 0.00 | 0.61 | 0.61 | 83 | 1013.2 |
| 20260507030049 | 13 | 32 | 1.6 | 3.2 | 0.00 | 0.61 | 0.61 | 84 | 1013.3 |
| 20260507025546 | 13 | 31 | 3.2 | 6.4 | 0.00 | 0.61 | 0.61 | 84 | 1013.2 |
| 20260507025043 | 13 | 154 | 3.2 | 3.2 | 0.00 | 0.61 | 0.61 | 86 | 1013.0 |
| 20260507024541 | 13 | 220 | 0.0 | 3.2 | 0.00 | 0.61 | 0.61 | 85 | 1013.0 |
| 20260507024038 | 13 | 268 | 3.2 | 9.7 | 0.00 | 0.61 | 0.61 | 84 | 1012.8 |
| 20260507023533 | 13 | 249 | 3.2 | 6.4 | 0.00 | 0.61 | 0.61 | 85 | 1012.8 |
| 20260507023032 | 13 | 199 | 4.8 | 4.8 | 0.00 | 0.61 | 0.61 | 85 | 1012.6 |
| 20260507022528 | 13 | 136 | 0.0 | 3.2 | 0.00 | 0.61 | 0.61 | 84 | 1012.6 |
| 20260507022029 | 13 | 103 | 1.6 | 4.8 | 0.00 | 0.61 | 0.61 | 84 | 1012.5 |
| 20260507021525 | 14 | 111 | 0.0 | 1.6 | 0.00 | 0.61 | 0.61 | 84 | 1012.3 |
| 20260507021022 | 14 | 105 | 3.2 | 4.8 | 0.00 | 0.61 | 0.61 | 84 | 1012.3 |
| 20260507020519 | 14 | 104 | 1.6 | 6.4 | 0.00 | 0.61 | 0.61 | 83 | 1012.3 |
| 20260507020015 | 14 | 83 | 1.6 | 4.8 | 0.00 | 0.61 | 0.61 | 84 | 1012.2 |
| 20260507015514 | 14 | 67 | 0.0 | 1.6 | 0.00 | 0.61 | 0.61 | 84 | 1012.5 |
| 20260507015011 | 14 | 342 | 4.8 | 6.4 | 0.00 | 0.61 | 0.61 | 84 | 1012.1 |
| 20260507014507 | 14 | 10 | 3.2 | 6.4 | 0.00 | 0.61 | 0.61 | 83 | 1012.3 |
| 20260507014003 | 14 | 346 | 3.2 | 3.2 | 0.00 | 0.61 | 0.61 | 85 | 1012.0 |
| 20260507013500 | 14 | 70 | 1.6 | 1.6 | 0.00 | 0.61 | 0.61 | 84 | 1012.3 |
| 20260507012957 | 14 | 41 | 1.6 | 3.2 | 0.00 | 0.61 | 0.61 | 85 | 1012.4 |
| 20260507012454 | 14 | 28 | 0.0 | 1.6 | 0.00 | 0.61 | 0.61 | 85 | 1012.4 |
| 20260507011951 | 14 | 50 | 1.6 | 3.2 | 0.00 | 0.61 | 0.61 | 85 | 1012.1 |
| 20260507011448 | 14 | 44 | 0.0 | 3.2 | 0.00 | 0.61 | 0.61 | 85 | 1012.0 |
| 20260507010943 | 15 | 55 | 1.6 | 1.6 | 0.00 | 0.61 | 0.61 | 86 | 1011.9 |
| 20260507010438 | 15 | 70 | 0.0 | 1.6 | 0.00 | 0.61 | 0.61 | 84 | 1011.8 |
| 20260507005935 | 15 | 58 | 0.0 | 0.0 | 0.00 | 0.61 | 0.61 | 84 | 1011.9 |
| 20260507005433 | 15 | 73 | 0.0 | 3.2 | 0.00 | 0.61 | 0.61 | 85 | 1011.7 |
| 20260507004929 | 15 | 52 | 0.0 | 3.2 | 0.00 | 0.61 | 0.61 | 84 | 1011.7 |
| 20260507004426 | 15 | 56 | 1.6 | 4.8 | 0.00 | 0.61 | 0.61 | 84 | 1012.0 |
| 20260507003923 | 15 | 55 | 0.0 | 3.2 | 0.00 | 0.61 | 0.61 | 85 | 1012.3 |
| 20260507003418 | 15 | 41 | 0.0 | 0.0 | 0.00 | 0.61 | 0.61 | 84 | 1012.1 |
| 20260507002914 | 16 | 61 | 0.0 | 6.4 | 0.00 | 0.61 | 0.61 | 85 | 1011.9 |
| 20260507002410 | 16 | 68 | 0.0 | 3.2 | 0.00 | 0.61 | 0.61 | 84 | 1011.9 |
| 20260507001907 | 16 | 103 | 0.0 | 3.2 | 0.00 | 0.61 | 0.61 | 82 | 1011.5 |
| 20260507001404 | 16 | 44 | 3.2 | 4.8 | 0.00 | 0.61 | 0.61 | 82 | 1011.7 |
| 20260507000902 | 16 | 72 | 0.0 | 1.6 | 0.00 | 0.61 | 0.61 | 83 | 1011.5 |
| 20260507000357 | 16 | 14 | 1.6 | 3.2 | 0.00 | 0.61 | 0.61 | 83 | 1011.3 |
| 20260506235853 | 16 | 358 | 0.0 | 1.6 | 0.00 | 0.61 | 0.61 | 84 | 1011.4 |
| 20260506235350 | 16 | 23 | 0.0 | 1.6 | 0.00 | 0.61 | 0.61 | 83 | 1011.6 |
| 20260506234845 | 16 | 298 | 1.6 | 4.8 | 0.00 | 0.61 | 0.61 | 83 | 1011.3 |
| 20260506234344 | 16 | 38 | 0.0 | 0.0 | 0.00 | 0.61 | 0.61 | 88 | 1011.4 |
| 20260506233841 | 16 | 127 | 0.0 | 1.6 | 0.00 | 0.61 | 0.61 | 87 | 1011.4 |
| 20260506233337 | 17 | 91 | 0.0 | 3.2 | 0.00 | 0.61 | 0.61 | 86 | 1011.1 |
| 20260506232834 | 16 | 165 | 0.0 | 1.6 | 0.00 | 0.61 | 0.61 | 85 | 1011.1 |
| 20260506232330 | 17 | 94 | 0.0 | 1.6 | 0.00 | 0.61 | 0.61 | 87 | 1010.6 |
| 20260506231826 | 17 | 73 | 0.0 | 1.6 | 0.00 | 0.61 | 0.61 | 85 | 1010.6 |
| 20260506231324 | 17 | 90 | 0.0 | 3.2 | 0.00 | 0.61 | 0.61 | 84 | 1010.6 |
| 20260506230821 | 17 | 258 | 0.0 | 1.6 | 0.00 | 0.61 | 0.61 | 84 | 1010.6 |
| 20260506230318 | 17 | 193 | 0.0 | 1.6 | 0.00 | 0.61 | 0.61 | 85 | 1010.5 |
| 20260506225814 | 17 | 50 | 0.0 | 1.6 | 0.00 | 0.61 | 0.61 | 85 | 1010.4 |
| 20260506225312 | 17 | 231 | 0.0 | 3.2 | 0.00 | 0.61 | 0.61 | 85 | 1010.3 |
| 20260506224808 | 17 | 330 | 3.2 | 3.2 | 0.00 | 0.61 | 0.61 | 85 | 1010.5 |
| 20260506224306 | 17 | 39 | 1.6 | 4.8 | 0.00 | 0.61 | 0.61 | 87 | 1010.3 |
| 20260506223802 | 18 | 127 | 0.0 | 1.6 | 0.00 | 0.61 | 0.61 | 88 | 1010.2 |
| 20260506223257 | 18 | 137 | 0.0 | 0.0 | 0.00 | 0.61 | 0.61 | 88 | 1010.4 |
| 20260506222754 | 18 | 341 | 3.2 | 4.8 | 0.00 | 0.61 | 0.61 | 86 | 1010.3 |
| 20260506222250 | 18 | 287 | 1.6 | 1.6 | 0.00 | 0.61 | 0.61 | 87 | 1010.3 |
| 20260506221748 | 17 | 240 | 1.6 | 4.8 | 0.00 | 0.61 | 0.61 | 87 | 1010.1 |
| 20260506221246 | 18 | 340 | 3.2 | 3.2 | 0.00 | 0.61 | 0.61 | 88 | 1009.9 |
| 20260506220743 | 18 | 57 | 0.0 | 3.2 | 0.00 | 0.61 | 0.61 | 88 | 1009.9 |
| 20260506220237 | 18 | 43 | 0.0 | 0.0 | 0.00 | 0.61 | 0.61 | 87 | 1009.9 |
| 20260506215735 | 18 | 148 | 0.0 | 0.0 | 0.00 | 0.61 | 0.61 | 87 | 1009.6 |
| 20260506215230 | 18 | 211 | 0.0 | 3.2 | 0.00 | 0.61 | 0.61 | 88 | 1009.7 |
| 20260506214727 | 18 | 180 | 1.6 | 4.8 | 0.00 | 0.61 | 0.61 | 88 | 1009.5 |
| 20260506214224 | 18 | 305 | 0.0 | 0.0 | 0.00 | 0.61 | 0.61 | 87 | 1009.5 |
| 20260506213722 | 18 | 25 | 0.0 | 1.6 | 0.00 | 0.61 | 0.61 | 87 | 1009.6 |
| 20260506213219 | 18 | 335 | 1.6 | 1.6 | 0.00 | 0.61 | 0.61 | 91 | 1009.4 |
| 20260506212716 | 18 | 316 | 3.2 | 3.2 | 0.00 | 0.61 | 0.61 | 94 | 1009.4 |
| 20260506212212 | 18 | 325 | 1.6 | 1.6 | 0.00 | 0.61 | 0.61 | 94 | 1009.4 |
| 20260506211707 | 18 | 1 | 0.0 | 0.0 | 0.00 | 0.61 | 0.61 | 95 | 1009.6 |
| 20260506211204 | 18 | 316 | 0.0 | 4.8 | 0.00 | 0.61 | 0.61 | 94 | 1009.4 |
| 20260506210701 | 18 | 321 | 0.0 | 3.2 | 0.00 | 0.61 | 0.61 | 94 | 1009.6 |
| 20260506210158 | 18 | 283 | 3.2 | 4.8 | 0.48 | 0.61 | 0.61 | 93 | 1009.4 |
| 20260506205655 | 18 | 301 | 3.2 | 4.8 | 0.89 | 0.61 | 0.61 | 94 | 1009.2 |
| 20260506205150 | 18 | 316 | 6.4 | 9.7 | 0.13 | 0.48 | 0.48 | 94 | 1009.0 |
| 20260506204648 | 18 | 212 | 1.6 | 1.6 | 0.00 | 0.46 | 0.46 | 93 | 1008.7 |
| 20260506204144 | 18 | 158 | 0.0 | 0.0 | 0.00 | 0.46 | 0.46 | 93 | 1009.0 |
| 20260506203642 | 18 | 162 | 0.0 | 1.6 | 0.00 | 0.46 | 0.46 | 92 | 1008.8 |
| 20260506203139 | 18 | 148 | 0.0 | 0.0 | 0.00 | 0.46 | 0.46 | 92 | 1008.8 |
| 20260506202637 | 18 | 148 | 0.0 | 1.6 | 0.00 | 0.46 | 0.46 | 92 | 1008.7 |
| 20260506202133 | 19 | 189 | 0.0 | 1.6 | 0.00 | 0.46 | 0.46 | 92 | 1008.7 |
| 20260506201630 | 19 | 145 | 1.6 | 3.2 | 0.00 | 0.46 | 0.46 | 91 | 1008.8 |
| 20260506201126 | 19 | 168 | 0.0 | 1.6 | 0.00 | 0.46 | 0.46 | 91 | 1008.7 |
| 20260506200623 | 19 | 142 | 0.0 | 1.6 | 0.00 | 0.46 | 0.46 | 91 | 1008.5 |
| 20260506200120 | 19 | 200 | 1.6 | 1.6 | 0.00 | 0.46 | 0.46 | 92 | 1008.4 |
| 20260506195617 | 18 | 154 | 1.6 | 1.6 | 0.00 | 0.46 | 0.46 | 91 | 1008.6 |
| 20260506195113 | 19 | 193 | 0.0 | 0.0 | 0.00 | 0.46 | 0.46 | 91 | 1008.8 |
| 20260506194611 | 19 | 205 | 0.0 | 0.0 | 0.00 | 0.46 | 0.46 | 92 | 1008.6 |
| 20260506194107 | 18 | 204 | 0.0 | 1.6 | 0.00 | 0.46 | 0.46 | 92 | 1008.7 |
| 20260506193605 | 18 | 215 | 0.0 | 1.6 | 0.00 | 0.46 | 0.46 | 92 | 1008.8 |
| 20260506193102 | 18 | 229 | 0.0 | 1.6 | 0.00 | 0.46 | 0.46 | 92 | 1008.7 |
| 20260506192558 | 18 | 204 | 0.0 | 0.0 | 0.00 | 0.46 | 0.46 | 93 | 1008.5 |
| 20260506192054 | 18 | 217 | 0.0 | 0.0 | 0.00 | 0.46 | 0.46 | 92 | 1008.8 |
| 20260506191551 | 18 | 195 | 0.0 | 0.0 | 0.00 | 0.46 | 0.46 | 92 | 1008.9 |
| 20260506191047 | 18 | 188 | 0.0 | 1.6 | 0.00 | 0.46 | 0.46 | 92 | 1008.9 |
| 20260506190544 | 18 | 177 | 0.0 | 1.6 | 0.00 | 0.46 | 0.46 | 92 | 1008.7 |
| 20260506190041 | 18 | 190 | 0.0 | 1.6 | 0.00 | 0.46 | 0.46 | 92 | 1008.9 |